[[{"header":{"parameterUnit":"m.s-1","parameterCategory":1,"la1":30.2991,"la2":30.254,"lo1":-89.0895,"lo2":-89.0444,"dy":0.0017,"dx":0.0017,"nx":28,"ny":28,"refTime":"2025-03-20T09:00:00:Z","depth":0,"parameterNumber":2,"parameterNumberName":"U-component_of_WINDS"},"data":[0,0,0,0,0,0,0,0,0,0,0,0,0,0,0,0,0,0,0,0,0,0,0,0,0,0,0,0,0,0,0,0,0,0,0,0,0,0,0,0,0,0,0,0,0,0,0,0,0,0,0,0,0,0,0,0,0,0,4.453,4.4532,0,4.4723,4.4725,4.4727,4.4696,4.4693,4.469,4.4687,4.4883,4.4891,4.4899,0,0,0,0,0,0,0,0,0,0,0,0,0,4.4133,4.414,4.453,4.4533,4.4535,4.4722,4.4725,4.4727,4.4697,4.4693,4.4689,4.4685,4.488,4.489,4.49,0,0,0,0,0,0,0,0,0,0,0,0,0,4.4313,4.4143,4.453,4.4542,4.4545,4.4722,4.4725,4.4728,4.4698,4.4693,4.4688,4.4683,4.4877,4.4889,4.4901,4.5077,0,0,4.4939,4.4944,0,0,0,0,0,0,0,0,4.4303,4.4328,4.4538,4.4542,4.4545,4.468,4.4656,4.4845,4.4699,4.464,4.4686,4.4681,4.4819,4.4836,4.4883,4.5086,4.5094,4.494,4.4948,4.4953,4.4957,0,0,0,0,0,0,0,4.429,4.4319,4.4606,4.4541,4.4546,4.4537,4.4557,4.4692,4.4755,4.4645,4.4643,4.4666,4.482,4.4871,4.4887,4.5097,4.494,4.4951,4.4958,4.4963,4.5448,4.5453,0,0,0,0,0,0,4.4275,4.4309,4.46,4.4612,4.441,4.4548,4.4571,4.4642,4.4753,4.4766,4.467,4.4664,4.4852,4.4873,4.4894,4.5103,4.4953,4.4965,4.4972,4.5443,4.5449,4.5455,0,0,0,0,0,0,4.4266,4.4301,4.4592,4.446,4.4497,4.456,4.4641,4.4648,4.4699,4.4773,4.4783,4.4711,4.4849,4.4877,4.503,4.5109,4.497,4.4981,4.5436,4.5445,4.5452,4.5524,0,0,0,0,0,0,4.4255,4.4298,4.4367,4.4462,4.4504,4.4727,4.4646,4.4656,4.4721,4.4714,4.4813,4.4825,4.4847,4.5012,4.5043,4.5124,4.4991,4.5429,4.544,4.545,4.5515,4.5534,4.555,0,0,0,0,0,4.4241,4.4381,4.437,4.4406,4.4591,4.4731,4.4755,4.4778,4.4727,4.4795,4.4842,4.4822,4.5096,4.5028,4.5062,4.5149,4.5425,4.5437,4.5449,4.5507,4.553,4.555,0,0,0,0,0,0,4.4294,4.4393,4.4383,4.4558,4.4636,4.4726,4.4813,4.4803,4.4897,4.4887,4.4911,4.4934,4.5089,4.5135,4.5057,4.5322,4.5253,4.5273,4.5286,4.5308,4.5325,4.5309,4.5002,0,0,0,0,0,4.4326,4.4432,4.4513,4.4659,4.4699,4.4749,4.4812,4.4822,4.4904,4.4937,4.4995,4.5075,4.5178,4.5246,4.5346,4.5522,4.5541,4.5598,4.5616,4.563,4.5645,4.5737,4.5762,4.5495,4.5495,4.5495,0,0,4.4393,4.446,4.4526,4.4672,4.4734,4.4841,4.4778,4.4896,4.4975,4.4955,4.5102,4.5148,4.5238,4.5402,4.5478,4.5445,4.5723,4.5645,4.5656,4.5664,4.5752,4.5777,4.5799,4.5503,4.5502,4.5501,0,0,4.4569,4.4633,4.4759,4.4821,4.4916,4.4947,4.4978,4.5069,4.5097,4.5246,4.5232,4.5326,4.5506,4.5569,4.5625,4.5821,4.5804,4.5853,4.5943,4.6032,4.6053,4.6071,4.6137,4.6161,4.5869,4.587,4.587,0,4.464,4.4802,4.4825,4.4943,4.5005,4.4992,4.5118,4.5178,4.53,4.5343,4.5305,4.5526,4.5587,4.5763,4.581,4.5858,4.589,4.5841,4.6048,4.6067,4.6085,4.6147,4.6173,4.5875,4.5874,4.5873,4.5873,0,4.4883,4.4996,4.5086,4.5202,4.5276,4.5398,4.5436,4.5507,4.5511,4.5546,4.5695,4.5767,4.5878,4.5922,4.5928,4.6098,4.6074,4.6043,4.5973,4.6115,4.6174,4.6198,4.5882,4.588,4.5878,4.5877,0,0,4.5098,4.5223,4.5255,4.5306,4.5407,4.5494,4.5614,4.5723,4.5781,4.5865,4.5963,4.6114,4.6084,4.6147,4.616,4.6238,4.6383,4.6196,4.6198,4.6224,4.6569,4.6589,4.6617,4.6373,4.6378,4.6382,4.656,0,4.528,4.5491,4.5513,4.5702,4.5803,4.579,4.5894,4.5966,4.6002,4.6092,4.6131,4.6236,4.6191,4.6228,4.6305,4.6349,4.6452,4.6337,4.6462,4.6466,4.6436,4.6649,4.6672,4.6836,4.6584,4.6588,4.6591,0,4.5522,4.561,4.5808,4.5891,4.5934,4.6027,4.6126,4.6214,4.6294,4.6314,4.6383,4.6384,4.6505,4.6433,4.6597,4.6518,4.6571,4.66,4.6607,4.6617,4.6534,4.666,4.689,4.6913,4.6628,4.6625,4.6623,0,4.5652,4.5822,4.5961,4.6005,4.6107,4.6171,4.6217,4.6292,4.6355,4.6441,4.6481,4.6581,4.6635,4.6711,4.6738,4.6684,4.69,4.6831,4.6917,4.6916,4.696,4.6956,4.7197,4.7001,4.7001,4.7,4.7,0,4.5852,4.5972,4.602,4.6105,4.6238,4.6262,4.6393,4.6435,4.6501,4.6592,4.6589,4.6674,4.6707,4.6797,4.6819,4.6949,4.6974,4.6992,4.6995,4.699,4.6987,4.7022,4.701,4.7007,4.7005,4.7004,4.7003,0,4.602,4.6058,4.6207,4.629,4.6314,4.6407,4.6478,4.6558,4.6592,4.6707,4.6735,4.6788,4.6893,4.6928,4.7057,4.7071,4.7221,4.7217,4.7193,4.7193,4.7274,4.7264,4.7543,4.7579,4.7363,4.7365,4.7367,0,4.6142,4.6234,4.6326,4.6386,4.6434,4.6532,4.6595,4.6621,4.6686,4.6782,4.685,4.6955,4.7039,4.7208,4.7256,4.7353,4.7349,4.744,4.7363,4.7353,4.7345,4.7337,4.7344,4.7453,4.7455,4.7457,4.7459,0,4.6355,4.6368,4.6459,4.6556,4.663,4.6708,4.6783,4.6832,4.6869,4.6942,4.7049,4.7115,4.7244,4.7346,4.7444,4.7489,4.7479,4.7483,4.7507,4.75,4.748,4.7487,4.7228,4.7475,4.7474,4.7473,4.7472,4.7471,4.6501,4.658,4.6656,4.6756,4.6814,4.6883,4.6962,4.7004,4.7094,4.72,4.7211,4.7325,4.7399,4.7529,4.7579,4.7667,4.7641,4.7677,4.7686,4.7693,4.7697,4.7469,4.7686,4.7685,4.7685,4.7685,4.7684,0,4.6709,4.6756,4.6848,4.6952,4.703,4.7014,4.7095,4.716,4.7261,4.7331,4.7414,4.7534,4.7632,4.7688,4.7785,4.7845,4.7842,4.7869,4.7863,4.7873,4.7717,4.7684,4.7869,4.7869,4.7869,4.7869,4.7869,4.7869,4.6826,4.6957,4.6979,4.7138,4.7184,4.7295,4.7342,4.7405,4.746,4.7595,4.7676,4.7711,4.7774,4.7876,4.7964,4.7978,4.8012,4.8041,4.8051,4.7904,4.7884,4.7866,4.7835,4.8049,4.8049,4.8199,4.82,4.8201]},{"header":{"parameterUnit":"m.s-1","parameterCategory":1,"la1":30.2991,"la2":30.254,"lo1":-89.0895,"lo2":-89.0444,"dy":0.0017,"dx":0.0017,"nx":28,"ny":28,"refTime":"2025-03-20T09:00:00:Z","depth":0,"parameterNumber":3,"parameterNumberName":"V-component_of_WINDS"},"data":[0,0,0,0,0,0,0,0,0,0,0,0,0,0,0,0,0,0,0,0,0,0,0,0,0,0,0,0,0,0,0,0,0,0,0,0,0,0,0,0,0,0,0,0,0,0,0,0,0,0,0,0,0,0,0,0,0,0,1.5582,1.5582,0,1.5634,1.5635,1.5636,1.5593,1.5591,1.5589,1.5588,1.5643,1.5646,1.5649,0,0,0,0,0,0,0,0,0,0,0,0,0,1.5444,1.5447,1.5582,1.5582,1.5583,1.5634,1.5635,1.5636,1.5593,1.5591,1.5589,1.5587,1.5642,1.5646,1.5649,0,0,0,0,0,0,0,0,0,0,0,0,0,1.5501,1.5448,1.5582,1.5568,1.5567,1.5634,1.5635,1.5636,1.5594,1.5591,1.5588,1.5586,1.5641,1.5645,1.565,1.5733,0,0,1.5664,1.5666,0,0,0,0,0,0,0,0,1.5498,1.5506,1.5569,1.5569,1.5568,1.5604,1.5607,1.5669,1.5594,1.5584,1.5588,1.5584,1.5632,1.5638,1.5653,1.5736,1.5738,1.5665,1.5668,1.567,1.5671,0,0,0,0,0,0,0,1.5494,1.5504,1.5603,1.557,1.557,1.5559,1.5564,1.5618,1.5623,1.5584,1.5582,1.5588,1.5632,1.5649,1.5654,1.5739,1.5665,1.5669,1.5672,1.5674,1.589,1.5892,0,0,0,0,0,0,1.5491,1.5501,1.5601,1.5604,1.5526,1.5564,1.5569,1.5596,1.5622,1.5623,1.559,1.5586,1.5642,1.5649,1.5656,1.5754,1.567,1.5674,1.5677,1.5887,1.589,1.5893,0,0,0,0,0,0,1.5489,1.5501,1.5599,1.5552,1.5563,1.5569,1.5599,1.5598,1.5615,1.5626,1.5627,1.5608,1.564,1.565,1.5714,1.5755,1.5676,1.5681,1.5883,1.5888,1.5892,1.5951,0,0,0,0,0,0,1.5485,1.55,1.5532,1.5553,1.5566,1.5656,1.5601,1.5601,1.5623,1.5618,1.5643,1.5644,1.5639,1.5707,1.5718,1.576,1.5684,1.588,1.5885,1.589,1.5945,1.5957,1.5967,0,0,0,0,0,1.548,1.5548,1.5534,1.5546,1.5606,1.5658,1.5666,1.5658,1.5627,1.5659,1.5666,1.5643,1.5749,1.5714,1.5726,1.577,1.5877,1.5884,1.589,1.5941,1.5955,1.5966,0,0,0,0,0,0,1.5533,1.555,1.5535,1.5612,1.5634,1.5651,1.5692,1.5674,1.5706,1.57,1.5689,1.5695,1.5762,1.5773,1.5733,1.5851,1.5808,1.5817,1.5842,1.5855,1.5866,1.5862,1.5688,0,0,0,0,0,1.5554,1.5594,1.5607,1.5673,1.5685,1.5686,1.5709,1.5701,1.5723,1.5733,1.5744,1.5767,1.5805,1.5831,1.5867,1.5946,1.595,1.5983,1.5993,1.6002,1.601,1.6051,1.6065,1.5915,1.5915,1.5915,0,0,1.5597,1.5611,1.5638,1.5684,1.57,1.5742,1.5695,1.5742,1.5773,1.574,1.5801,1.581,1.5835,1.5906,1.5939,1.5917,1.6052,1.601,1.6017,1.6021,1.6059,1.6073,1.6086,1.5919,1.5918,1.5918,0,0,1.5696,1.5712,1.5767,1.5784,1.5808,1.5808,1.5822,1.5841,1.5846,1.5906,1.5882,1.5918,1.5985,1.6002,1.602,1.6124,1.6104,1.6136,1.6191,1.6231,1.6243,1.6253,1.6289,1.6302,1.6144,1.6144,1.6144,0,1.5747,1.5809,1.5798,1.5846,1.5867,1.5838,1.5893,1.591,1.5946,1.596,1.5935,1.6016,1.6031,1.6105,1.613,1.6146,1.616,1.6133,1.6242,1.6252,1.6262,1.6296,1.6309,1.6147,1.6147,1.6147,1.6146,0,1.5869,1.5913,1.5954,1.5988,1.6013,1.6065,1.6061,1.6088,1.6077,1.6079,1.614,1.6156,1.6194,1.6211,1.6201,1.6283,1.6269,1.6243,1.62,1.628,1.6311,1.6324,1.6153,1.6151,1.615,1.6149,0,0,1.6006,1.603,1.6046,1.6059,1.6083,1.6116,1.6166,1.6201,1.6224,1.6248,1.6289,1.6344,1.632,1.634,1.6332,1.6367,1.6446,1.6337,1.6337,1.6356,1.6535,1.6554,1.6569,1.6432,1.6435,1.6437,1.6533,0,1.6105,1.6191,1.6181,1.6263,1.6302,1.6274,1.6317,1.6335,1.6338,1.6371,1.6375,1.6413,1.6379,1.6391,1.6424,1.6429,1.6481,1.6422,1.6469,1.6471,1.6464,1.6586,1.6606,1.6696,1.6545,1.6547,1.6549,0,1.6234,1.6261,1.6347,1.6362,1.6378,1.6417,1.6447,1.6479,1.6499,1.6499,1.652,1.6505,1.6554,1.6508,1.6575,1.6534,1.6553,1.6558,1.6561,1.6565,1.6515,1.6593,1.6725,1.6738,1.6568,1.6567,1.6565,0,1.6323,1.6382,1.6439,1.6452,1.6472,1.6499,1.6509,1.6526,1.6547,1.6574,1.6587,1.662,1.6637,1.6662,1.6656,1.6624,1.6723,1.6678,1.6723,1.6723,1.6746,1.6745,1.6883,1.6759,1.6758,1.6758,1.6758,0,1.6435,1.6488,1.6479,1.6515,1.6573,1.6561,1.6619,1.6625,1.664,1.6675,1.6653,1.6687,1.6676,1.671,1.6705,1.6759,1.6768,1.6768,1.6766,1.677,1.677,1.6782,1.6776,1.6762,1.6761,1.676,1.676,0,1.6545,1.6542,1.6603,1.6615,1.662,1.6662,1.6672,1.6705,1.6705,1.6751,1.6761,1.6761,1.6799,1.6794,1.6837,1.6834,1.6901,1.6892,1.6894,1.6892,1.6937,1.6933,1.7088,1.7107,1.6971,1.6972,1.6974,0,1.6617,1.6657,1.6673,1.6695,1.6706,1.6742,1.6763,1.6751,1.6774,1.6798,1.6828,1.6863,1.6891,1.6952,1.6956,1.6988,1.6979,1.7031,1.6984,1.6985,1.6978,1.6976,1.6979,1.704,1.7042,1.7043,1.7044,0,1.6744,1.674,1.6771,1.68,1.6825,1.6849,1.6869,1.6888,1.6879,1.6905,1.6943,1.6964,1.7006,1.7041,1.7071,1.708,1.706,1.7059,1.7071,1.7075,1.7074,1.7074,1.6919,1.7056,1.7054,1.7054,1.7053,1.7053,1.6837,1.687,1.6886,1.692,1.6934,1.6953,1.6984,1.6987,1.7018,1.7051,1.7043,1.7085,1.7101,1.7139,1.7151,1.7183,1.7164,1.7182,1.7186,1.7191,1.7195,1.7069,1.7188,1.7188,1.7188,1.7187,1.7187,0,1.6962,1.697,1.7002,1.703,1.7057,1.7035,1.7056,1.708,1.7117,1.7134,1.7161,1.7203,1.7236,1.7242,1.7273,1.7297,1.7289,1.7306,1.7304,1.7306,1.7211,1.7197,1.7312,1.7312,1.7312,1.7312,1.7312,1.7312,1.703,1.7084,1.7081,1.7142,1.715,1.719,1.7204,1.7221,1.7234,1.7282,1.7309,1.7311,1.7323,1.7355,1.7383,1.7384,1.7396,1.7417,1.7414,1.7325,1.7313,1.7301,1.7288,1.7419,1.742,1.7505,1.7506,1.7507]}]]